DECAYED

NOAA 16 DEB, 41515 (Decayed)

Orbit data source: Space-Track

NOAA 16 DEB, 41515 was space debris in SSO originally from a launch on Thu, 21 Sep 2000 UTC launched from the Air Force Western Test Range (AFWTR). Debris objects in space refer to the collection of defunct objects orbiting the Earth. Examples of debris include non-operational satellites, rocket bodies, and fragments generated from explosions, collisions, or faulty payload assembly.

Loading next visibility...
Identifier
41515, 2000-055MP
Orbit
Decayed
Country
Flag of USUS
Related business
Manufacturer
Unknown
Mission
Decayed spacecraft
Bus & Motor
Unknown
Mass
Unknown
Launch date (UTC)
2000-09-21 (25 years ago)
Launch vehicle
Unknown
Launch site
Air Force Western Test Range (AFWTR)
Object type
Payload
Rocket body
Debris
Shape & HBR
Unknown shape, 0.1 m
Radar Cross Section
Small (<0.1 m²)

Expand to show TLE details & history
Last TLE update: 1 year ago

TLE from 1 year ago
0 NOAA 16 DEB
1 41515U 00055MP  25019.55333374  .09292946  00000-0  44545-1 0  9990
2 41515  98.9151 237.2227 0010069  36.6871 323.5078 15.77991224456261
Epoch: 2025-01-19T13:16Z
TLE epoch observation values (Epoch: 2025-01-19T13:16:48.035Z)
Latitude
-0.00001°
Longitude
-81.16406°
Altitude
333.819 km
Speed
7.711 km/s
True Right ascension
15h 48m 53s
True Declination
0° 00' 00"
Sunlit
Object was in daylight at epoch
Visualization orbit readout
Latitude
Unknown
Longitude
Unknown
Altitude
Unknown
Speed
Unknown
Apparent Right ascension
Unknown
Apparent Declination
Unknown
Sunlit
N/A
Visualization observer readout
Local Sidereal Time
19:22:30
Azimuth
Unknown
Elevation
Unknown
Doppler factor
Unknown
Orbital elements
Apogee altitude
339.852 km
Perigee altitude
326.337 km
Semi-major axis
6,711.232 km
Eccentricity
0.00101
Inclination
98.9151°
RAAN
237.2227°
Arg. of periapsis
36.6871°
True anomaly
323.43911°
Mean anomaly
323.5078°
Eccentric anomaly
323.47346°
Mean motion
3.94766 °/min
Orbital period
91.19 mins
BSTAR
0.044545
Loading maneuver chart data...
Computing Atmospheric mass density...
Loading historical data...
Loading historical data...
Loading historical data...
Loading historical data...
Loading historical data...
Loading historical data...
Loading historical data...

Documentation

Showing up to 5 results
|